Wind_Speed
32 32 36 38 46 46 45 49 45 38 29 26 21 15 3 8 3 19 22 22 21 24 25 28 33 25 24 23 16 17 15 17 19 18 16 18 16 21 20 21 22 24 31 43
33 37 35 41 46 46 47 50 50 41 30 23 16 7 10 15 18 8 21 28 22 36 34 32 30 26 22 21 19 18 17 16 15 20 17 18 25 35 32 29 37 47 39 44
30 33 39 42 46 46 50 51 50 43 30 21 14 8 13 17 21 21 4 26 30 26 34 33 37 29 26 26 23 21 20 21 17 23 17 19 21 37 38 27 31 43 51 33
30 35 35 46 47 48 53 53 49 39 31 24 19 6 14 20 23 17 12 19 27 31 38 42 45 35 32 29 29 28 27 26 21 26 28 27 23 30 42 44 38 48 46 55
32 34 39 46 45 50 52 54 46 36 30 26 19 6 20 20 19 21 24 38 36 44 45 46 38 34 36 38 40 38 37 34 33 27 31 36 32 36 43 47 50 64 56 50
30 34 42 45 49 51 53 53 43 35 26 23 19 10 8 19 27 18 22 36 37 47 45 43 32 34 40 42 40 40 42 41 37 36 35 36 38 39 40 45 52 61 56 54
32 39 47 46 48 50 55 49 41 35 22 20 16 11 5 15 25 32 36 31 42 45 44 43 45 46 46 48 47 42 39 39 40 41 41 38 37 40 45 48 54 65 71 72
37 44 44 43 48 51 52 43 39 26 20 15 17 17 15 10 18 18 25 37 38 38 36 38 43 48 50 53 51 47 45 45 43 42 45 45 48 44 46 50 57 64 70 74
37 42 37 42 48 52 49 37 30 22 14 12 7 3 5 5 20 23 27 37 37 41 42 41 41 44 55 51 51 53 52 52 51 52 54 53 54 56 54 52 54 62 67 72
37 39 38 44 49 52 42 31 25 18 13 10 9 10 11 13 17 24 28 33 35 36 35 37 41 43 47 52 52 52 56 59 61 60 59 59 60 61 61 62 61 61 64 67
42 35 37 44 49 48 33 24 15 16 15 16 17 18 21 23 25 28 30 34 37 37 40 43 45 45 47 55 61 62 61 63 64 65 64 65 64 65 65 66 68 69 70 72
38 34 38 42 48 42 26 16 16 18 18 18 21 23 25 28 30 31 32 33 36 40 44 47 50 52 56 59 64 65 67 66 68 70 70 69 70 71 69 72 71 72 72 75
34 34 38 41 44 33 19 16 16 20 25 27 29 29 30 31 32 33 36 40 43 47 48 52 54 55 59 63 69 70 72 76 76 78 76 75 77 77 77 79 80 80 80 81
33 36 39 42 41 28 20 22 20 21 21 23 26 28 31 34 38 41 43 46 49 50 57 61 59 60 67 69 71 72 73 74 77 80 81 82 83 83 83 85 89 90 89 89
31 35 41 43 38 25 20 21 20 18 22 27 29 34 39 42 41 45 47 52 55 57 65 68 69 73 75 75 77 82 85 83 85 85 85 87 89 88 88 91 92 90 88 87
31 35 38 43 40 32 22 22 21 26 30 32 36 41 44 46 45 47 50 55 58 62 69 73 76 80 83 84 85 90 88 88 88 86 81 76 72 68 66 64 63 63 61 61
32 36 39 41 42 34 27 24 27 32 36 38 42 43 46 50 50 53 56 60 64 69 72 75 77 82 82 86 92 92 83 78 71 64 59 55 51 51 49 46 44 44 45 43
33 36 38 42 43 38 29 27 30 33 37 39 41 41 47 53 55 59 63 67 71 77 79 79 85 88 88 89 87 81 72 63 56 53 47 45 40 40 39 36 34 31 30 30
33 35 38 42 43 40 36 27 29 34 39 43 45 47 54 57 62 66 70 75 80 85 87 89 91 95 96 92 87 71 60 51 47 44 37 30 26 27 27 30 32 29 23 19
34 37 39 43 44 38 37 31 29 31 38 42 42 47 52 56 59 65 70 78 82 85 88 91 94 97 95 88 76 63 53 46 40 32 20 14 19 21 18 27 30 28 30 24
36 38 41 42 41 40 40 31 29 35 38 40 44 49 54 58 63 65 75 82 85 89 94 95 94 93 88 77 61 53 44 37 27 13 11 15 16 16 17 20 24 27 30 29
39 40 43 43 40 38 38 34 32 35 41 43 47 53 59 64 69 71 83 85 89 94 98 99 92 84 72 63 52 44 34 25 11 9 14 20 20 22 22 23 21 26 25 22
40 42 42 41 39 36 34 30 33 38 43 46 51 57 62 67 69 78 83 89 92 95 97 96 85 71 59 48 43 32 22 10 5 10 13 20 23 27 26 26 27 28 26 24
43 43 43 37 36 32 25 28 34 40 42 47 52 57 64 67 72 83 88 97 97 97 96 83 69 59 46 39 32 20 7 7 10 10 16 21 24 24 24 27 27 27 27 28
41 43 44 37 32 28 26 31 37 39 41 48 55 59 65 69 79 87 93 101 96 91 77 63 53 44 38 32 24 5 5 10 15 19 18 22 28 30 30 30 28 28 31 33
40 39 38 35 30 28 30 35 39 39 44 51 56 63 70 73 83 88 98 104 93 73 60 51 40 33 30 21 11 5 7 16 19 18 21 27 31 33 38 39 37 36 34 31
Wind_Direction
327 321 318 329 336 334 334 331 332 330 326 321 321 326 294 148 36 25 359 327 309 290 322 328 335 311 317 325 333 323 311 311 313 324 329 333 329 322 332 346 333 328 332 317
323 322 321 333 329 327 328 331 334 331 329 327 324 324 159 115 86 61 357 323 305 292 321 328 328 312 315 307 313 308 312 307 314 323 322 50 54 360 325 316 317 310 292 274
323 317 317 327 331 326 328 333 334 330 329 325 302 277 200 146 118 107 63 301 308 325 324 315 321 306 303 303 300 299 295 298 301 291 288 276 275 253 253 289 290 264 266 258
316 315 318 331 325 325 332 334 333 330 323 310 311 278 191 177 178 183 185 266 304 298 317 308 310 301 309 305 303 303 303 304 290 280 278 262 238 222 232 221 239 233 230 249
315 316 319 325 325 329 331 333 333 326 320 316 315 307 203 198 201 210 242 254 287 295 298 304 304 302 303 303 301 303 305 302 296 285 282 281 268 252 232 223 234 220 228 240
311 312 318 320 323 329 330 333 331 327 324 313 314 292 230 221 220 221 241 259 273 277 285 301 301 299 295 289 295 298 298 298 295 295 288 282 272 268 251 234 226 227 235 228
304 307 313 319 322 330 332 333 330 329 331 314 323 315 282 237 227 214 254 270 268 272 287 296 304 301 292 295 298 300 301 298 296 297 296 287 278 271 265 256 235 236 241 247
302 309 314 318 328 332 332 330 327 335 329 333 327 330 320 278 230 240 267 263 260 289 295 298 298 299 295 300 305 304 302 302 297 293 294 292 288 281 273 265 253 247 250 250
306 313 319 323 332 332 332 332 330 334 330 341 24 11 0 275 237 267 270 270 276 295 299 298 295 295 299 298 300 304 303 300 297 291 291 291 290 290 286 280 274 256 257 258
305 314 322 329 332 333 336 333 333 346 15 34 39 9 337 309 294 292 294 299 300 296 295 296 302 301 297 301 303 302 298 298 300 295 290 287 287 287 284 284 282 276 267 266
300 313 324 330 334 335 340 338 2 9 3 350 345 333 326 320 315 313 309 304 304 306 307 309 309 305 301 301 302 302 298 298 298 295 291 289 287 284 281 279 279 279 278 274
305 316 326 333 335 334 339 332 341 348 335 330 332 330 327 322 319 317 319 314 311 310 312 313 311 308 307 304 304 300 299 299 302 302 297 292 288 286 284 280 277 277 275 274
308 317 327 333 336 332 336 325 342 337 332 335 336 333 326 323 324 319 316 316 317 319 320 316 313 311 309 305 305 303 298 298 301 302 298 296 291 288 286 285 283 280 277 274
313 318 326 333 337 331 324 326 338 330 322 330 333 336 332 332 332 328 325 324 321 319 322 319 312 312 312 309 307 307 305 301 300 298 295 293 290 286 283 280 278 276 274 272
311 317 325 334 337 326 306 315 321 318 319 325 335 336 337 335 331 329 326 326 324 321 322 321 319 320 319 316 312 310 309 305 302 297 292 290 287 284 282 281 281 281 279 276
309 316 326 330 334 328 299 311 315 318 315 318 326 326 327 330 329 327 324 324 323 320 320 320 321 321 321 317 314 313 310 304 298 297 297 295 295 292 289 289 288 287 285 281
307 315 323 329 329 325 303 305 310 314 321 325 324 323 324 328 325 324 324 324 326 323 319 322 322 321 319 315 314 312 312 309 310 307 308 306 304 303 303 301 297 292 289 286
306 316 322 327 326 322 305 300 305 311 317 321 326 325 324 324 324 324 325 327 327 327 325 324 323 322 320 319 315 319 316 318 314 316 316 316 320 323 328 328 321 308 300 292
307 316 322 324 324 319 315 292 296 305 309 320 325 327 326 325 323 323 326 327 329 329 327 325 324 324 323 323 322 321 322 320 319 319 324 333 338 337 347 349 351 343 325 319
305 313 321 323 321 314 313 296 291 301 313 318 321 323 323 323 324 326 327 330 328 329 326 324 324 324 324 323 324 323 326 325 325 327 345 343 341 340 8 9 8 15 20 25
303 312 319 320 318 318 315 304 293 306 312 317 321 322 324 326 328 327 331 334 331 329 325 324 324 325 323 322 324 325 326 329 333 358 358 347 339 349 357 9 11 12 14 19
306 314 319 322 317 315 312 306 303 307 311 316 321 324 325 330 329 331 336 335 328 326 326 325 325 324 322 322 322 329 327 330 357 351 341 339 345 360 3 360 355 354 359 355
304 311 316 319 314 311 309 299 302 307 317 319 324 325 326 328 328 332 335 335 329 327 327 325 322 322 321 323 324 330 329 350 5 347 336 346 7 10 8 4 3 360 357 350
304 310 314 316 313 311 300 295 301 309 314 321 323 324 326 327 330 335 337 337 329 330 326 322 321 321 327 323 326 334 338 355 352 334 347 7 12 9 3 356 350 346 343 341
302 309 311 313 311 302 298 302 306 310 318 321 324 325 330 330 332 338 338 338 335 328 323 321 321 321 326 331 330 15 9 8 4 13 17 15 4 1 358 359 354 344 337 331
301 305 305 304 303 298 301 306 307 311 321 322 326 328 331 332 336 338 339 342 335 329 327 325 324 323 333 335 359 83 43 21 25 21 16 9 10 3 351 344 339 338 338 338
Height
10909 10905 10902 10898 10890 10884 10883 10876 10874 10865 10858 10851 10847 10847 10844 10842 10840 10835 10836 10834 10828 10826 10823 10820 10818 10818 10815 10812 10809 10808 10807 10806 10805 10804 10802 10800 10800 10804 10806 10808 10811 10810 10805 10797
10906 10901 10896 10891 10887 10882 10878 10872 10862 10854 10851 10848 10844 10845 10841 10841 10839 10835 10837 10829 10823 10819 10814 10813 10815 10813 10811 10808 10806 10803 10804 10803 10801 10795 10793 10799 10803 10816 10817 10807 10804 10810 10802 10787
10901 10897 10892 10888 10882 10877 10871 10865 10855 10846 10843 10841 10839 10841 10839 10838 10837 10832 10842 10832 10819 10815 10815 10813 10811 10809 10808 10806 10802 10801 10800 10796 10798 10791 10792 10792 10794 10777 10795 10803 10802 10785 10792 10784
10897 10894 10890 10883 10878 10871 10863 10856 10848 10839 10834 10834 10834 10836 10836 10835 10835 10830 10832 10828 10816 10813 10808 10809 10805 10801 10798 10797 10795 10792 10789 10787 10786 10778 10772 10773 10773 10765 10768 10769 10755 10769 10767 10753
10893 10890 10885 10879 10874 10866 10858 10850 10843 10835 10830 10827 10828 10830 10837 10834 10834 10837 10833 10820 10813 10809 10803 10803 10799 10793 10789 10785 10779 10777 10777 10778 10774 10768 10761 10754 10755 10754 10751 10751 10745 10744 10741 10737
10888 10885 10879 10873 10868 10861 10851 10843 10834 10829 10826 10821 10821 10823 10826 10830 10831 10827 10818 10817 10814 10809 10803 10797 10792 10785 10779 10775 10773 10771 10767 10764 10763 10757 10751 10746 10742 10738 10736 10735 10732 10727 10723 10715
10882 10880 10875 10869 10861 10855 10843 10834 10827 10821 10821 10817 10817 10817 10820 10820 10818 10815 10809 10810 10806 10805 10798 10790 10782 10773 10765 10763 10762 10759 10755 10752 10748 10744 10737 10732 10728 10724 10720 10717 10715 10709 10704 10699
10878 10872 10870 10864 10857 10849 10838 10829 10821 10818 10814 10815 10813 10811 10812 10811 10812 10813 10809 10805 10801 10798 10791 10785 10776 10762 10754 10749 10746 10745 10742 10738 10734 10729 10725 10720 10714 10710 10704 10699 10695 10690 10682 10674
10875 10868 10865 10859 10852 10842 10833 10824 10817 10815 10813 10812 10812 10812 10811 10810 10808 10806 10801 10797 10793 10788 10782 10778 10771 10760 10744 10742 10738 10732 10725 10721 10718 10715 10711 10705 10698 10690 10685 10681 10676 10671 10665 10658
10870 10867 10861 10853 10844 10837 10828 10820 10815 10811 10811 10811 10812 10812 10810 10807 10805 10800 10794 10790 10785 10779 10774 10768 10762 10754 10743 10731 10725 10720 10711 10705 10700 10695 10691 10686 10680 10674 10667 10660 10653 10649 10644 10640
10863 10862 10858 10848 10839 10831 10823 10817 10814 10812 10810 10808 10808 10806 10803 10801 10797 10794 10789 10782 10775 10769 10763 10757 10750 10744 10735 10723 10711 10704 10696 10687 10681 10674 10669 10662 10657 10650 10646 10640 10634 10627 10620 10614
10856 10854 10851 10844 10831 10825 10821 10816 10814 10812 10809 10808 10806 10803 10799 10795 10790 10784 10779 10773 10766 10761 10755 10748 10739 10729 10720 10711 10699 10686 10677 10668 10657 10650 10644 10637 10630 10624 10619 10611 10606 10602 10597 10589
10849 10847 10844 10840 10830 10822 10818 10815 10813 10808 10803 10801 10800 10797 10792 10787 10782 10776 10769 10763 10755 10747 10740 10732 10723 10715 10705 10694 10683 10671 10659 10648 10639 10627 10616 10607 10599 10594 10590 10583 10575 10569 10567 10563
10844 10840 10837 10833 10825 10817 10814 10811 10810 10807 10803 10801 10797 10792 10786 10780 10772 10765 10757 10749 10742 10733 10725 10715 10705 10695 10685 10674 10663 10649 10638 10627 10616 10601 10588 10577 10567 10562 10557 10550 10541 10534 10534 10531
10839 10834 10829 10825 10821 10815 10811 10809 10807 10804 10800 10796 10792 10785 10779 10773 10765 10756 10747 10739 10729 10719 10707 10696 10685 10673 10660 10647 10634 10621 10609 10597 10582 10569 10555 10543 10532 10526 10520 10511 10502 10497 10494 10494
10835 10831 10825 10818 10813 10808 10806 10805 10802 10797 10794 10790 10784 10776 10769 10764 10756 10748 10739 10730 10719 10708 10694 10681 10668 10656 10640 10625 10608 10595 10582 10565 10545 10534 10525 10513 10505 10495 10487 10481 10475 10469 10466 10464
10830 10825 10820 10815 10807 10803 10800 10800 10796 10791 10783 10779 10774 10768 10759 10753 10746 10738 10728 10718 10707 10695 10683 10671 10658 10642 10625 10607 10590 10571 10554 10534 10521 10509 10502 10493 10485 10477 10471 10465 10457 10450 10447 10445
10824 10820 10815 10810 10802 10796 10795 10793 10789 10785 10779 10774 10768 10761 10754 10744 10735 10724 10713 10704 10694 10681 10668 10654 10638 10621 10603 10584 10565 10548 10529 10517 10504 10495 10487 10480 10473 10466 10459 10451 10445 10439 10434 10431
10817 10814 10809 10805 10797 10789 10786 10787 10785 10780 10773 10767 10759 10750 10741 10732 10721 10707 10695 10681 10669 10655 10641 10628 10612 10594 10574 10556 10539 10526 10515 10504 10495 10488 10480 10475 10469 10463 10456 10448 10440 10433 10428 10425
10811 10808 10805 10798 10791 10785 10780 10778 10778 10777 10769 10763 10756 10748 10740 10729 10719 10706 10692 10676 10661 10644 10627 10612 10593 10574 10554 10538 10524 10512 10503 10495 10488 10482 10477 10474 10470 10463 10456 10449 10443 10436 10431 10427
10804 10802 10799 10794 10785 10777 10771 10770 10771 10767 10764 10757 10751 10742 10732 10721 10709 10697 10682 10664 10646 10628 10610 10591 10576 10556 10538 10522 10514 10504 10496 10489 10483 10479 10477 10475 10470 10464 10459 10453 10447 10442 10439 10435
10795 10794 10790 10785 10778 10774 10768 10764 10762 10759 10755 10749 10741 10732 10720 10708 10694 10681 10665 10647 10628 10612 10591 10567 10551 10538 10525 10512 10503 10497 10490 10486 10482 10481 10479 10476 10472 10466 10460 10455 10449 10445 10442 10439
10788 10787 10785 10780 10774 10769 10763 10760 10756 10751 10745 10739 10731 10721 10709 10697 10685 10672 10656 10637 10614 10596 10574 10551 10534 10523 10513 10504 10496 10492 10487 10484 10484 10482 10480 10477 10473 10466 10461 10455 10450 10444 10440 10436
10780 10778 10776 10774 10768 10763 10759 10756 10751 10746 10740 10733 10724 10714 10702 10689 10677 10661 10642 10619 10595 10571 10552 10535 10521 10509 10504 10495 10491 10489 10486 10486 10486 10484 10482 10479 10473 10469 10463 10457 10450 10444 10437 10432
10775 10770 10765 10764 10761 10758 10754 10751 10746 10740 10735 10725 10716 10705 10692 10679 10663 10645 10625 10602 10578 10556 10536 10522 10511 10502 10496 10491 10488 10487 10487 10488 10489 10487 10485 10481 10475 10469 10462 10456 10450 10443 10437 10430
10771 10767 10761 10757 10755 10753 10749 10745 10739 10733 10726 10717 10707 10694 10680 10669 10655 10635 10611 10584 10561 10539 10523 10510 10502 10495 10490 10487 10487 10488 10490 10492 10493 10491 10488 10483 10477 10470 10461 10452 10444 10436 10429 10423